FW7930 Weather Reports


time (UTC)temp
F
wind
direction
speed
knots
gust
knots
rain 1hr
in
rain 24hr
in
rain mn
in
humidity
%
barometer
mb
20260505003040 67 149 0.9 4.3 0.00 0.00 0.00 45 1009.2
20260505001537 68 121 1.7 5.2 0.00 0.00 0.00 44 1009.0
20260505000040 68 140 0.0 4.3 0.00 0.00 0.00 43 1009.0
20260504234546 69 141 1.7 7.0 0.00 0.00 0.00 42 1008.9
20260504233035 70 137 3.5 10.4 0.00 0.00 0.00 40 1008.7
20260504231531 71 167 3.5 8.7 0.00 0.00 0.00 39 1008.8
20260504230030 71 144 1.7 7.8 0.00 0.00 0.00 39 1008.8
20260504224530 71 139 1.7 9.6 0.00 0.00 0.00 39 1008.9
20260504223029 72 169 3.5 8.7 0.00 0.00 0.00 39 1008.8
20260504221558 72 136 4.3 10.4 0.00 0.00 0.00 37 1008.7
20260504220100 72 162 0.9 8.7 0.00 0.00 0.00 38 1008.8
20260504214600 73 193 3.5 12.2 0.00 0.00 0.00 37 1008.9
20260504213125 73 186 3.5 13.0 0.00 0.00 0.00 38 1008.8
20260504211556 73 121 3.5 9.6 0.00 0.00 0.00 39 1008.9
20260504210052 73 126 3.5 12.2 0.00 0.00 0.00 38 1008.9
20260504204554 73 138 5.2 10.4 0.00 0.00 0.00 38 1008.9
20260504203059 72 153 3.5 11.3 0.00 0.00 0.00 39 1009.1
20260504201545 72 113 3.5 10.4 0.00 0.00 0.00 38 1009.4
20260504201543 72 123 3.5 10.4 0.00 0.00 0.00 38 1009.4
20260504200044 73 282 0.0 7.8 0.00 0.00 0.00 39 1009.7
20260504194555 73 202 0.9 7.8 0.00 0.00 0.00 39 1009.9
20260504193043 72 5 0.9 7.0 0.00 0.00 0.00 40 1010.2
20260504191533 72 161 2.6 7.0 0.00 0.00 0.00 41 1010.4
20260504190128 71 105 2.6 8.7 0.00 0.00 0.00 41 1010.6
20260504184526 70 148 4.3 13.9 0.00 0.00 0.00 41 1010.9
20260504183025 69 139 1.7 13.0 0.00 0.00 0.00 43 1011.2
20260504181522 70 177 3.5 12.2 0.00 0.00 0.00 40 1011.4
20260504180018 69 173 2.6 8.7 0.00 0.00 0.00 43 1011.5
20260504174517 69 170 2.6 7.8 0.00 0.00 0.00 42 1011.6
20260504173023 69 130 0.0 6.1 0.00 0.00 0.00 41 1011.7
20260504171518 69 171 3.5 8.7 0.00 0.00 0.00 41 1012.0
20260504140106 59 144 1.7 6.1 0.00 0.00 0.00 53 1013.8
20260504081506 38 269 0.0 0.0 0.00 0.00 0.00 84 1015.0
20260504044557 40 269 0.0 0.0 0.00 0.00 0.00 77 1015.3
20260504043045 40 269 0.0 0.0 0.00 0.00 0.00 77 1015.2
20260504041542 40 269 0.0 0.0 0.00 0.00 0.00 77 1015.2
20260504040041 40 271 0.0 0.0 0.00 0.00 0.00 75 1015.0
20260504034550 41 271 0.0 0.0 0.00 0.00 0.00 75 1014.8
20260504033050 41 271 0.0 0.0 0.00 0.00 0.00 71 1015.0
20260504031537 42 271 0.0 0.0 0.00 0.00 0.00 70 1014.9
20260504030037 43 271 0.0 0.0 0.00 0.00 0.00 69 1014.8
20260504024515 44 271 0.0 0.0 0.00 0.00 0.00 67 1014.8
20260504023008 44 271 0.0 0.0 0.00 0.00 0.00 65 1014.7
20260504021537 45 271 0.0 0.0 0.00 0.00 0.00 63 1014.7
20260504020036 46 271 0.0 0.0 0.00 0.00 0.00 63 1014.7
20260504014536 47 271 0.0 0.0 0.00 0.00 0.00 58 1014.6
20260504013037 48 271 0.0 0.0 0.00 0.00 0.00 57 1014.6
20260504011533 49 271 0.0 0.0 0.00 0.00 0.00 55 1014.4
20260504010046 50 271 0.0 0.0 0.00 0.00 0.00 50 1014.3
20260504004529 51 271 0.0 2.6 0.00 0.00 0.00 51 1014.2